Home   Weather   Langley   Past weeks

Flag for Canada Past Weather in Langley, British Columbia, Canada — Yesterday and Last 2 Weeks

Now
45 °F

Cool.


Feels Like: 45 °F
Forecast: 46 / 57 °F
Wind: 1 mph from Northeast

Location: P. Meadows Coastal Station

Current Time: Apr 30, 2017 at 2:09:47 am

Latest Report: Apr 30, 2017 at 1:00 am


Visibility: N/A

Pressure: 30.07 "Hg

Humidity: 96%

Dew Point: 44 °F

Location of LangleyLocation

Past Weather in Langley — Graph

°F

Langley Temperature Yesterday

Maximum temperature yesterday: 52 °F (at 1:00 pm)
Minimum temperature yesterday: 42 °F (at 3:00 am)
Average temperature yesterday: 46 °F

High & Low Weather Summary for the Past Weeks

 TemperatureHumidityPressure
High68 °F (Apr 21, 6:00 pm)100% (Apr 23, 4:00 am)30.43 "Hg (Apr 23, 4:00 am)
Low36 °F (Apr 16, 5:00 am)26% (Apr 21, 6:00 pm)29.73 "Hg (Apr 26, 4:00 am)
Average50 °F75%30.02 "Hg
* Reported Apr 15 12:00 am — Apr 30 12:00 am, Langley, Weather by CustomWeather, © 2017

Note: Actual official high and low records may vary slightly from our data, if they occured in-between our weather recording intervals... More about our weather records

Advertising

Langley Weather History for the Previous 24 Hours

Scroll right to see more
 ConditionsComfort  
Time TempWeatherWind HumidityBarometerVisibility
12:00 am
Sun, Apr 30
45 °FQuite cool.5 mph95%30.07 "HgN/A
11:00 pm
Sat, Apr 29
44 °FQuite cool.7 mph96%30.06 "HgN/A
10:00 pm44 °FQuite cool.7 mph95%30.06 "HgN/A
9:00 pm45 °FCool.10 mph94%30.06 "HgN/A
8:00 pm46 °FCool.9 mph91%30.08 "HgN/A
7:00 pm47 °FCool.7 mph92%30.10 "HgN/A
6:00 pm46 °FCool.5 mph86%30.12 "HgN/A
5:00 pm47 °FCool.7 mph87%30.13 "HgN/A
4:00 pm49 °FCool.9 mph85%30.14 "HgN/A
3:00 pm49 °FCool.7 mph88%30.17 "HgN/A
2:00 pm48 °FCool.3 mph87%30.19 "HgN/A
1:00 pm52 °FCool.1 mph63%30.19 "HgN/A
12:00 pm51 °FCool.1 mph62%30.21 "HgN/A
11:00 am51 °FCool.2 mph62%30.24 "HgN/A
10:00 am49 °FCool.2 mph71%30.26 "HgN/A
9:00 am48 °FCool.2 mph76%30.28 "HgN/A
8:00 am46 °FCool.1 mph82%30.30 "HgN/A
7:00 am44 °FQuite cool.2 mph89%30.28 "HgN/A
6:00 am43 °FQuite cool.No wind83%30.28 "HgN/A
5:00 am43 °FQuite cool.No wind91%30.29 "HgN/A
4:00 am43 °FQuite cool.2 mph84%30.29 "HgN/A
3:00 am42 °FQuite cool.2 mph91%30.30 "HgN/A
2:00 am44 °FQuite cool.No wind80%30.32 "HgN/A
Weather by CustomWeather, © 2017

See weather overviewHow to use our weather pages